Showing default

OPS 2366 (TRANSIT 14), 2401

Orbit data source: Space-Track

OPS 2366 (TRANSIT 14), 2401 is a payload satellite owned by USN NAVAIR (US) in LEO that was launched on Thu, 18 Aug 1966 UTC via an SCOUT A launch vehicle from the Air Force Western Test Range (AFWTR). Payload-class satellites include a variety of spacecraft equipped with specific instruments for various scientific and technological missions. These include communications satellites like Starlink; space stations such as the ISS; scientific satellites like the Hubble; Earth observation satellites from companies like Planet Labs, Umbra, and HawkEye 360; GPS; miniature CubeSats for education and research; and military/defense satellites.

Loading next visibility...
Identifier
2401, 1966-076A
Orbit
LEO
Country
Flag of USUS
Related business
Manufacturer
APL
Mission
Spacecraft
Bus & Motor
TRANSIT 5, Unknown motor
Mass
~49 kg wet, ~49 kg dry
Launch date (UTC)
1966-08-18 (60 years ago)
Launch vehicle
SCOUT A
Launch site
Air Force Western Test Range (AFWTR)
Object type
Payload
Rocket body
Debris
Shape & HBR
Unknown
Radar Cross Section
Large (>1 m²)

Expand to show TLE details & history
Last TLE update: 12 hours ago

TLE from 12 hours ago
0 OPS 2366 (TRANSIT 14)
1 02401U 66076A   26120.86962830  .00000137  00000-0  18317-3 0  9999
2 02401  88.8459  71.3440 0034780  82.4370 331.5443 13.53946037944692
Epoch: 2026-04-30T20:52Z
TLE epoch observation values (Epoch: 2026-04-30T20:52:15.885Z)
Latitude
53.86959°
Longitude
-98.95907°
Altitude
1,043.974 km
Speed
7.346 km/s
True Right ascension
04h 51m 40s
True Declination
53° 42' 43"
Sunlit
Object was in daylight at epoch
Visualization orbit readout
Latitude
Unknown
Longitude
Unknown
Altitude
Unknown
Speed
Unknown
Apparent Right ascension
Unknown
Apparent Declination
Unknown
Sunlit
N/A
Visualization observer readout
Local Sidereal Time
16:49:31
Azimuth
Unknown
Elevation
Unknown
Doppler factor
Unknown
Orbital elements
Apogee altitude
1,080.675 km
Perigee altitude
1,028.971 km
Semi-major axis
7,432.96 km
Eccentricity
0.00348
Inclination
88.8459°
RAAN
71.344°
Arg. of periapsis
82.437°
True anomaly
331.35367°
Mean anomaly
331.5443°
Eccentric anomaly
331.44906°
Mean motion
3.38689 °/min
Orbital period
106.29 mins
BSTAR
0.00018317
Loading maneuver chart data...
Computing Atmospheric mass density...
Loading historical data...
Loading historical data...
Loading historical data...
Loading historical data...
Loading historical data...
Loading historical data...
Loading historical data...

Documentation

Showing up to 5 results
|